Wind_Speed
9 13 11 13 14 10 4 2 1 1 1 2 2 0 0 0 1 1 2 2 3 2 1 3 6 5 4 4 6 3 2 3 2 2 3 2 17 27 21 22 24 21 20 19 18 17 16 15 14 14 14 14 14 14 14 15 15 15 16 15 14 13 12 11 11 11 11 11 11 11 11 11 11 11 11 11 11 11 11 11 11 11 11 10 10 10 12 13 11 11 12 11 11 10 10 11 12
11 14 13 13 11 5 1 1 1 1 1 2 1 0 1 1 1 2 3 2 3 2 2 5 7 5 5 7 7 4 3 4 3 3 2 13 23 21 21 24 24 23 21 19 18 17 16 15 14 13 13 13 14 15 15 15 15 14 14 13 13 12 12 11 10 10 11 11 10 11 10 10 11 10 11 11 11 11 12 12 12 12 12 11 10 11 13 14 12 11 12 11 10 11 10 11 12
14 16 15 12 5 1 0 1 1 1 1 2 1 1 2 1 2 4 4 5 5 3 4 6 6 4 5 6 4 3 2 3 5 5 6 18 18 16 23 25 25 24 21 20 19 18 17 16 14 13 12 13 15 17 16 14 13 13 12 12 12 11 11 11 11 11 11 11 10 9 9 9 10 9 10 10 10 10 11 12 12 12 12 12 11 11 14 15 12 10 13 11 10 11 11 11 12
16 17 15 8 1 0 1 1 1 2 1 1 1 2 2 2 3 6 5 7 5 2 3 4 4 2 2 6 3 3 3 3 6 5 8 13 14 22 27 25 25 23 22 20 19 18 17 16 14 13 13 15 17 16 14 13 12 11 11 11 11 11 11 10 11 11 10 10 9 9 8 8 9 9 9 9 9 9 10 11 12 12 12 12 11 12 15 16 11 9 12 12 11 11 11 11 12
17 16 11 3 1 0 1 1 1 2 1 1 1 1 2 3 5 7 7 6 3 2 2 2 3 1 2 5 1 2 3 5 6 6 10 11 19 29 28 27 26 23 22 20 19 18 17 16 14 14 15 16 15 14 13 12 11 10 10 10 10 10 10 10 10 10 10 9 8 8 8 8 8 8 8 8 8 8 9 10 10 11 12 12 12 13 15 16 12 10 11 12 12 11 10 11 11
15 10 5 2 1 1 1 1 2 2 1 1 1 0 2 4 5 7 6 4 4 4 2 2 5 4 4 4 2 2 4 6 6 8 12 16 25 30 28 28 26 24 23 21 20 18 17 15 15 16 15 14 13 12 12 11 10 9 9 9 10 10 10 10 9 8 9 8 8 7 7 7 7 7 7 8 7 7 8 9 9 11 12 11 12 13 14 16 14 11 10 11 12 11 10 10 10
12 5 2 2 1 1 1 2 2 2 1 1 1 1 4 4 5 6 5 4 4 4 3 4 6 6 4 2 2 3 3 7 7 10 15 23 30 29 28 28 26 24 22 21 20 18 17 15 15 15 14 13 12 12 11 10 9 9 9 10 10 10 9 9 9 8 8 7 7 7 7 7 7 6 6 7 7 7 9 9 9 10 11 12 13 13 14 15 15 13 11 11 12 11 10 9 9
7 2 1 1 0 0 1 2 2 1 1 0 1 2 4 5 4 4 3 2 2 3 5 5 5 6 4 2 3 4 7 10 11 14 21 28 31 29 28 28 27 24 23 22 20 18 16 15 15 14 13 12 12 12 11 9 8 9 9 10 10 9 9 9 9 8 7 7 7 6 7 7 7 6 6 7 7 8 9 9 9 8 9 12 12 13 15 15 15 14 13 12 11 10 9 9 9
3 2 1 1 1 0 1 2 1 1 1 2 2 4 4 3 2 3 3 3 3 5 5 3 2 5 4 5 5 4 8 14 16 19 25 29 30 29 27 27 27 25 23 22 20 17 16 15 15 14 13 12 13 12 10 10 9 9 10 10 9 9 8 8 8 8 7 7 7 6 6 6 6 6 7 7 6 7 8 9 10 8 8 11 11 13 14 14 14 13 12 11 10 9 9 9 10
1 2 1 1 1 1 2 2 1 1 2 2 3 4 3 2 2 3 3 4 3 4 5 4 5 6 6 6 4 4 10 19 21 21 25 28 28 28 26 25 26 26 24 22 19 17 16 16 15 14 13 12 12 11 11 10 10 10 9 10 9 9 8 8 8 8 7 7 7 7 6 6 6 7 8 7 6 7 9 9 10 10 10 10 10 13 13 13 13 12 11 10 10 10 10 10 10
1 1 1 1 1 1 1 2 2 1 2 2 3 3 2 2 3 3 4 4 2 4 6 5 6 6 7 5 3 7 15 21 22 22 25 26 26 26 25 24 24 24 24 22 19 18 17 16 13 13 13 13 12 12 12 11 11 10 9 10 10 9 8 8 8 8 7 8 7 7 6 6 7 7 7 7 8 8 9 9 9 12 12 11 10 11 12 12 12 11 10 11 12 11 11 11 10
1 0 0 0 0 1 1 1 2 1 2 2 2 2 2 2 3 3 4 4 4 6 4 2 5 5 6 4 3 10 17 18 21 22 24 24 23 24 24 23 23 23 22 21 20 19 17 15 14 13 13 13 12 12 12 11 11 10 10 9 10 9 8 8 8 8 8 8 8 7 6 6 7 7 7 8 8 8 9 9 9 10 12 13 11 10 11 11 11 10 10 11 12 11 11 11 10
1 0 1 0 1 2 2 1 1 1 0 1 2 2 3 2 3 4 4 5 5 5 2 4 7 4 5 5 5 9 13 16 20 22 22 22 22 22 22 23 22 22 21 21 20 19 17 15 14 13 12 12 11 11 11 12 11 10 10 9 9 9 8 8 7 8 8 8 8 7 7 6 7 7 8 8 8 8 8 9 10 10 11 12 12 10 9 10 10 10 10 11 11 11 11 11 10
1 1 1 0 1 2 1 0 1 1 1 1 3 3 2 1 3 4 4 6 3 1 4 6 7 5 5 6 6 6 10 18 21 21 21 21 21 21 21 22 21 22 22 21 20 18 16 15 14 12 12 11 11 11 11 11 11 11 11 10 9 9 8 7 7 8 7 7 7 7 7 6 6 7 8 8 8 8 8 9 9 10 11 11 11 10 8 9 9 10 10 11 11 10 10 11 11
2 1 1 1 2 2 1 1 1 2 2 2 4 4 3 2 4 5 3 5 2 2 6 5 3 4 4 7 7 7 14 23 22 21 22 21 21 21 20 21 21 22 22 20 18 16 15 15 14 12 12 12 11 11 11 12 12 11 11 10 9 9 8 7 8 7 7 7 7 6 6 6 7 7 7 7 8 8 8 8 9 10 11 11 10 9 8 8 9 9 10 11 11 10 10 11 11
2 1 1 1 2 2 1 1 1 2 2 2 5 5 4 3 3 4 1 1 4 5 4 3 2 2 6 5 7 15 22 25 22 23 23 22 21 20 20 20 21 21 20 19 17 16 15 14 14 13 13 12 11 12 11 12 12 11 10 10 9 8 8 7 7 8 8 8 8 6 6 7 7 7 8 8 8 8 8 8 9 9 9 9 10 9 8 8 8 9 10 10 10 10 10 10 10
0 0 0 1 1 2 2 3 2 2 2 4 5 5 5 4 3 2 0 2 6 4 1 3 0 2 8 8 15 24 25 24 24 24 23 22 22 21 20 19 19 19 18 17 16 16 15 14 14 13 13 12 12 12 12 11 11 11 10 9 9 8 8 8 7 8 8 7 7 7 7 8 8 8 8 8 9 10 10 9 9 8 7 8 9 8 7 7 8 8 9 10 9 9 9 10 9
1 0 1 2 2 3 2 4 3 3 3 5 6 5 6 7 4 2 2 4 4 3 3 5 5 7 12 18 25 26 24 25 25 24 21 21 20 19 19 18 19 18 18 17 15 16 15 14 14 13 13 12 12 12 12 11 11 11 11 9 8 8 8 8 7 7 7 7 7 8 9 8 8 8 8 8 8 9 9 9 10 8 7 7 8 8 7 7 7 8 9 9 8 8 9 9 9
3 1 1 3 3 3 2 2 4 3 4 5 6 5 5 7 6 3 4 5 4 4 4 7 9 10 14 21 26 23 23 25 23 22 20 19 19 18 18 18 18 18 19 18 16 16 15 15 14 13 13 13 13 12 11 11 10 10 11 10 9 9 9 9 8 7 8 8 8 8 9 8 7 8 8 8 8 8 8 8 9 8 7 7 8 8 8 7 7 8 8 9 9 9 8 8 8
3 1 1 4 4 4 4 3 4 2 6 9 6 4 4 6 6 3 5 7 5 5 6 8 10 11 14 18 21 21 22 22 21 20 19 18 18 18 18 19 19 19 19 18 17 16 15 15 14 13 13 13 13 12 11 10 10 10 10 10 10 9 9 9 8 8 8 8 8 8 8 8 7 7 8 8 8 7 7 8 9 9 7 7 7 8 8 8 8 8 8 9 9 8 8 7 7
2 3 3 4 1 3 4 2 2 2 7 9 6 5 5 6 5 4 8 8 4 6 7 8 13 16 16 16 18 19 20 19 19 19 18 18 18 18 18 20 20 20 20 18 18 17 16 16 15 14 14 14 13 13 12 11 11 11 10 10 10 9 8 8 8 7 8 7 7 8 8 8 7 7 7 7 7 7 7 7 8 8 6 6 6 7 8 9 9 9 8 9 8 7 7 6 5
2 4 5 6 4 5 4 1 4 5 6 7 7 6 6 6 5 6 11 8 5 6 6 8 13 17 19 18 17 17 17 17 17 18 18 18 18 19 19 18 17 18 19 19 19 18 17 16 16 15 15 14 14 13 13 12 12 12 11 10 10 9 8 8 7 7 7 7 7 7 8 8 8 8 7 7 6 6 7 7 6 6 5 5 5 7 8 9 10 9 8 8 6 6 6 6 4
3 4 4 7 6 6 4 3 6 6 7 8 7 5 6 7 5 7 10 6 3 6 7 11 14 17 22 21 17 16 15 15 16 18 19 20 20 20 20 20 19 19 20 19 20 18 17 16 16 16 16 15 14 14 13 13 13 13 12 11 10 10 8 8 8 8 7 7 6 7 7 8 8 8 8 7 6 6 6 5 4 4 4 5 6 8 9 10 9 9 8 7 5 5 5 4 3
4 4 5 8 7 7 6 4 7 7 9 8 6 6 8 9 6 7 8 4 6 9 9 12 14 17 21 19 15 15 15 15 16 18 19 20 22 22 22 22 21 21 20 20 20 18 17 16 17 17 17 16 15 15 14 13 13 13 13 12 11 10 9 8 8 8 7 7 7 6 6 7 7 7 7 7 7 6 5 5 4 3 4 6 7 9 9 9 9 8 7 5 4 3 3 3 2
5 6 6 6 6 8 7 4 7 7 6 6 6 7 8 7 5 7 8 5 7 10 12 13 14 16 17 15 14 14 13 15 16 17 18 19 21 21 21 21 20 21 20 21 20 18 17 17 17 18 18 17 16 16 15 14 14 14 13 13 12 11 10 9 8 8 8 7 7 6 5 6 6 6 6 6 7 6 6 5 4 5 7 8 9 9 8 8 8 7 6 4 2 1 2 3 3
5 6 6 5 7 9 6 5 8 7 4 7 8 6 4 4 4 5 7 7 8 11 14 14 15 16 15 13 14 14 13 15 17 18 18 19 21 21 20 21 21 22 22 21 21 20 18 18 18 18 18 17 17 17 16 15 15 15 14 13 12 11 10 9 9 9 8 7 6 6 5 5 5 5 6 6 6 7 6 6 6 8 9 9 9 8 7 7 6 6 5 3 1 1 1 2 3
3 5 7 8 9 9 5 5 8 6 4 8 9 4 4 4 2 3 6 8 10 12 14 15 16 16 15 12 12 13 14 16 18 19 17 17 20 21 21 22 22 22 22 21 21 21 20 20 19 19 18 18 18 18 17 16 16 16 14 13 12 12 11 10 10 10 9 8 6 5 4 4 4 5 5 6 6 7 7 7 8 10 10 9 8 7 6 6 5 5 4 3 1 1 1 1 2
5 6 7 8 7 8 5 5 8 6 4 6 7 4 3 3 2 3 7 10 12 13 14 15 15 15 14 12 12 11 12 16 19 18 17 18 20 22 23 24 24 22 22 22 22 21 21 21 20 20 19 19 19 19 18 17 17 16 15 14 13 12 11 11 11 11 10 8 7 5 4 4 4 4 5 5 6 7 8 8 9 10 9 8 7 7 7 6 5 5 4 3 2 1 1 1 2
6 4 4 7 7 7 5 5 8 8 4 7 8 5 2 6 4 3 9 11 13 14 14 15 15 14 13 11 11 10 12 17 18 17 19 20 22 24 25 26 26 25 24 23 22 22 22 22 21 21 20 20 20 20 18 17 17 17 16 14 13 12 12 12 12 12 11 9 8 6 5 4 4 4 4 5 6 7 9 9 9 9 8 8 7 7 7 7 6 5 5 4 2 2 1 1 2
4 2 0 4 6 6 4 3 8 7 4 9 8 1 4 9 6 4 9 13 14 14 13 14 13 12 12 10 10 10 12 15 16 19 21 21 23 25 26 26 27 27 25 23 22 22 22 22 22 21 21 21 20 19 18 17 17 17 16 15 13 13 12 12 12 12 11 10 9 7 6 5 5 5 5 5 7 8 9 9 9 9 8 7 7 7 7 7 7 6 6 4 3 3 2 2 2
2 2 1 2 2 4 6 3 9 6 3 9 6 3 5 6 6 6 9 14 15 14 13 13 12 12 11 10 10 10 12 15 18 21 22 22 23 25 26 26 27 27 25 25 25 24 23 22 22 22 22 22 21 19 18 18 18 18 17 15 14 13 12 12 12 12 12 11 10 9 8 7 6 6 6 6 7 8 9 9 10 9 8 8 8 7 7 7 7 7 7 5 5 4 3 2 2
2 1 2 3 0 4 7 2 10 6 3 8 5 2 5 4 6 9 9 13 15 14 14 13 13 13 12 10 10 10 11 15 19 21 23 24 24 24 26 26 27 27 27 27 26 25 24 23 23 23 23 23 21 19 18 18 18 18 16 15 14 13 12 12 12 12 12 12 11 11 10 9 8 7 7 7 8 9 9 9 9 9 8 8 9 8 8 8 7 7 7 6 6 5 4 3 3
3 2 2 2 1 3 5 1 5 4 4 6 5 2 3 4 6 11 10 12 13 12 13 14 14 14 13 11 9 10 10 12 15 19 24 25 25 26 27 27 28 28 29 29 28 26 25 24 24 23 23 23 21 19 18 18 18 18 16 15 14 13 12 12 12 12 13 13 12 12 11 10 10 8 8 8 8 9 10 10 9 8 8 9 10 10 9 9 8 7 7 6 6 6 5 4 4
3 2 0 1 1 2 4 3 2 2 5 7 7 5 4 4 4 11 11 12 12 12 13 14 13 13 12 11 10 10 11 11 12 18 25 26 26 27 27 28 29 29 29 29 29 29 27 26 26 25 24 23 22 20 19 19 18 17 16 15 14 14 13 13 13 13 13 13 13 13 11 11 10 9 8 8 8 8 9 9 9 9 9 9 10 10 10 9 8 8 7 6 7 7 6 5 5
2 1 1 2 2 2 3 3 1 3 3 5 7 7 8 4 3 10 11 13 13 12 13 13 13 13 12 11 10 10 12 12 13 19 26 27 27 27 28 28 29 29 29 29 29 29 29 28 27 26 24 24 23 21 19 19 18 18 17 16 15 15 14 14 15 15 15 14 13 13 12 11 10 9 9 9 8 9 9 9 10 9 9 10 10 10 10 10 9 8 7 7 7 7 6 6 5
5 3 2 1 2 2 4 4 4 5 4 4 6 7 10 6 5 9 11 12 12 10 10 10 11 11 11 11 10 10 12 12 15 21 26 27 28 28 28 28 29 29 29 29 30 29 29 29 28 27 26 25 24 22 21 21 20 19 19 18 18 17 16 15 16 16 15 15 13 12 12 12 10 9 9 9 9 9 9 9 10 9 10 11 11 10 10 10 9 8 7 6 6 6 7 6 5
4 2 1 2 2 3 4 5 6 4 5 5 7 8 11 7 6 9 11 12 11 11 11 11 11 11 11 12 12 11 11 11 15 22 25 27 28 29 29 28 29 28 28 29 30 30 30 30 30 29 28 27 26 25 24 24 23 22 21 21 21 19 17 17 17 16 15 14 13 12 12 11 10 10 10 10 10 10 10 10 10 10 10 11 10 10 9 9 9 8 7 7 6 6 6 6 5
2 1 1 3 2 4 5 5 6 2 3 5 5 7 10 8 7 9 11 12 13 14 14 14 14 13 11 13 14 12 9 9 13 18 22 26 27 28 29 28 28 28 27 28 30 31 31 31 31 31 30 29 28 28 27 26 25 24 23 22 21 20 18 18 16 15 13 13 12 12 12 11 11 11 11 11 11 11 11 10 10 10 10 10 10 9 9 9 9 9 8 7 6 6 5 5 5
2 2 1 2 3 3 5 5 3 1 2 4 3 4 8 9 8 10 13 14 14 14 16 16 16 15 13 14 14 12 10 9 12 14 19 24 26 28 28 27 29 30 30 30 31 31 31 31 32 31 31 31 30 29 28 27 26 24 23 21 20 19 18 17 16 15 13 12 12 12 12 12 12 12 12 11 11 11 11 10 10 10 10 9 9 10 10 10 10 9 8 7 6 5 5 4 4
2 3 2 2 2 1 3 4 3 1 2 5 4 2 6 7 5 9 13 14 12 13 15 13 13 16 16 16 14 13 13 11 12 13 15 21 25 26 27 27 29 30 30 31 32 32 31 32 32 32 32 32 31 31 29 28 26 24 22 20 19 18 18 17 17 17 15 14 13 13 13 13 13 13 12 12 11 11 11 11 10 10 10 9 10 10 10 10 10 9 9 8 6 5 4 3 4
2 4 4 3 2 3 4 4 6 5 4 4 2 2 5 4 3 6 9 10 11 10 11 10 11 13 12 12 12 12 13 12 12 13 13 16 21 24 27 28 29 29 30 31 33 33 33 33 33 33 33 33 32 31 30 28 26 23 21 19 18 18 17 17 18 18 17 16 16 15 14 14 14 13 12 12 11 11 11 11 10 10 10 10 10 10 11 10 10 10 9 8 6 4 3 3 4
2 4 7 7 5 5 6 3 5 6 4 2 3 4 5 4 3 5 5 8 10 9 11 12 11 12 10 10 12 12 12 12 12 13 13 14 18 23 26 28 29 29 31 33 34 35 34 34 34 33 33 33 32 31 30 30 28 25 23 21 21 20 19 19 20 20 19 18 17 16 15 14 15 14 13 12 12 12 11 10 10 10 10 10 11 11 11 11 11 11 10 9 7 4 3 4 5
1 4 7 8 7 6 6 2 1 1 2 3 4 4 4 5 3 6 6 9 10 9 12 14 12 12 11 11 12 12 12 12 12 12 13 15 18 22 24 27 30 30 32 33 33 34 35 35 35 34 34 34 33 32 31 31 30 27 26 26 25 24 24 24 23 21 19 18 17 17 16 15 15 15 14 13 12 12 11 11 10 10 10 10 10 11 11 11 12 12 11 9 7 5 4 5 6
3 5 6 7 7 6 5 4 3 3 3 4 4 3 2 4 5 5 6 8 8 8 11 13 13 13 13 12 13 13 14 13 12 13 13 15 19 22 24 28 31 32 32 32 32 33 35 35 35 35 35 34 33 33 33 33 33 30 28 28 27 26 26 25 23 21 19 18 18 18 17 16 16 16 15 14 13 13 12 12 11 11 10 10 10 11 11 11 12 12 12 10 9 7 5 6 7
6 6 7 6 7 7 5 5 4 2 2 5 6 1 2 4 6 2 5 7 8 11 13 14 14 14 14 15 15 15 15 14 14 14 15 16 20 24 26 29 31 31 31 32 33 34 35 35 35 35 34 34 34 33 34 34 34 33 30 29 28 27 25 23 22 22 20 19 19 19 18 18 17 17 17 16 15 14 13 12 12 12 11 10 10 11 10 11 12 13 13 12 11 8 7 7 8
4 4 6 4 4 5 4 5 4 1 2 4 6 1 2 4 5 1 4 5 9 12 12 12 12 13 15 16 16 16 13 13 14 14 15 18 23 26 27 28 30 31 31 33 34 34 34 34 34 35 35 35 34 34 35 35 35 34 32 31 30 27 25 23 23 22 21 21 21 20 19 19 19 18 18 17 16 15 14 13 13 12 12 11 11 10 10 11 12 13 13 13 12 10 8 8 8
1 3 3 3 2 1 3 2 3 3 1 6 7 4 4 2 5 0 2 5 9 11 10 10 11 13 16 16 15 16 14 12 13 14 15 19 25 26 26 27 29 31 31 31 32 32 33 34 34 35 36 35 35 35 36 36 37 36 34 33 31 29 27 25 24 23 22 23 23 22 21 20 19 19 19 18 17 16 15 14 13 13 12 12 11 10 10 10 11 12 12 12 12 11 9 8 8
2 2 2 3 1 3 4 3 2 4 3 6 5 4 7 2 3 3 7 9 7 6 9 13 15 16 16 15 14 14 14 13 13 13 13 15 19 22 24 26 29 30 30 30 32 32 32 34 35 35 35 36 35 35 37 37 37 37 36 35 33 31 29 27 26 26 25 25 24 23 22 21 20 20 20 19 19 18 17 16 15 14 14 13 11 10 10 10 11 11 12 12 12 12 11 9 8
4 3 4 4 1 2 1 1 1 3 4 5 3 3 4 3 3 4 10 12 12 10 7 8 14 16 15 14 14 12 11 12 12 12 12 12 13 17 22 25 27 29 30 31 32 32 32 34 35 35 36 37 36 36 37 38 38 38 37 36 35 33 31 30 28 28 26 26 25 25 24 23 23 22 22 21 20 19 18 18 17 16 15 13 11 10 10 10 11 11 12 12 12 13 12 10 8
3 3 4 4 2 2 2 3 0 1 4 3 2 1 1 2 1 6 11 10 11 12 13 12 9 11 12 12 12 12 12 12 12 11 12 12 13 17 22 25 26 28 30 32 33 33 33 33 35 35 36 37 37 37 38 38 38 39 38 37 35 34 33 32 30 29 28 26 25 26 26 25 24 23 22 21 20 19 19 18 18 17 15 13 12 11 11 11 11 12 12 12 12 13 13 12 10
1 3 4 4 4 4 3 3 3 3 3 2 2 2 2 3 3 4 8 8 10 12 14 15 13 8 6 8 8 9 11 11 11 12 13 14 15 20 23 24 27 29 30 32 32 33 34 33 35 36 36 36 37 37 38 38 38 38 38 37 36 36 35 34 32 30 29 28 27 26 26 25 24 23 21 19 19 19 20 19 19 18 16 15 13 12 12 11 11 12 13 12 11 12 13 13 12
2 1 4 3 3 4 2 3 5 4 2 1 1 2 1 3 3 6 11 11 13 15 16 17 17 15 7 4 8 10 11 12 12 13 14 15 16 21 24 24 26 29 31 32 33 34 34 34 35 37 37 37 38 38 38 38 39 38 37 37 37 37 36 35 33 32 30 29 29 28 27 26 24 22 20 19 18 19 19 20 20 19 17 16 15 14 13 13 13 13 13 13 12 11 12 13 13
1 2 2 2 3 5 3 1 1 3 5 2 1 1 5 3 2 10 16 15 16 18 17 17 15 16 14 6 5 9 11 12 12 14 14 14 16 20 24 26 27 28 30 32 34 35 36 35 35 36 36 36 37 39 38 39 38 37 37 37 37 37 37 36 36 34 33 31 30 30 28 26 25 24 22 20 20 19 19 20 20 19 18 17 16 15 14 14 14 14 13 13 12 11 11 12 12
2 2 2 3 2 3 3 2 2 4 4 1 3 4 5 5 3 10 17 19 19 18 16 16 16 17 16 13 11 8 11 13 13 14 13 13 15 21 25 27 29 31 33 34 35 36 37 37 37 37 36 36 38 38 38 38 38 37 37 37 37 37 38 38 37 36 34 32 31 31 30 29 27 26 23 22 21 21 20 20 20 19 19 17 17 16 15 15 15 15 14 13 12 11 12 11 11
3 2 1 1 3 1 1 2 2 2 3 1 3 3 5 5 4 8 15 17 17 16 15 16 17 17 15 13 16 15 10 11 12 11 11 12 15 20 25 27 30 32 34 35 36 36 36 36 37 38 38 39 39 39 38 37 37 37 38 38 38 38 38 37 37 36 35 33 32 32 31 31 29 27 25 23 23 23 22 21 20 20 20 19 17 17 16 15 15 16 16 14 12 12 12 12 10
4 3 3 3 3 2 1 2 2 3 3 3 2 3 4 3 5 6 9 12 13 14 14 14 14 14 13 12 14 15 12 8 11 12 11 13 15 21 27 29 30 32 33 34 34 35 36 36 36 36 37 37 37 38 38 38 38 38 37 37 38 38 38 37 37 36 35 35 34 32 32 31 30 29 27 25 24 23 23 23 22 21 20 20 19 18 18 17 16 17 17 16 14 13 13 13 11
5 5 5 4 3 1 2 2 2 2 3 3 3 3 1 4 4 5 7 9 10 12 12 11 11 12 12 13 13 13 14 11 8 10 13 12 13 20 26 28 28 29 30 32 33 35 35 35 36 36 35 35 35 36 37 37 38 38 37 37 37 38 37 37 36 36 36 36 35 33 32 31 30 29 28 27 25 24 24 23 23 22 22 21 21 20 19 19 17 17 18 17 16 15 15 14 13
5 4 4 3 3 2 4 2 2 1 3 3 4 5 1 3 3 4 6 7 8 10 11 10 11 13 13 13 15 14 14 14 14 9 10 11 11 15 20 22 24 25 28 30 32 34 35 35 35 36 35 35 36 36 37 37 36 36 37 37 37 37 37 37 36 36 36 36 36 35 34 32 30 30 29 29 27 26 24 24 23 24 24 23 22 21 20 20 19 18 18 18 17 16 16 16 15
Wind_Direction
145 140 153 155 148 150 160 225 225 218 214 249 255 282 284 346 335 124 115 134 123 93 356 98 108 104 106 120 136 119 56 133 133 132 186 171 144 151 153 156 158 153 150 145 142 139 134 138 141 140 141 141 140 137 134 129 126 123 120 118 116 115 115 115 116 119 121 121 121 120 121 122 121 123 124 126 130 133 135 137 138 137 135 135 136 130 122 118 125 131 127 128 129 125 123 125 121
156 145 149 144 148 161 146 238 233 263 234 263 284 7 308 337 55 91 98 114 98 106 103 101 95 68 80 106 116 96 45 28 64 104 115 134 138 147 153 156 157 154 151 146 143 140 140 144 144 145 145 144 141 134 130 127 123 119 118 118 120 120 120 121 121 123 122 121 121 121 123 125 126 127 126 128 132 136 139 140 139 139 139 137 136 132 124 119 128 135 127 127 125 125 126 123 119
157 148 145 142 156 213 187 210 240 278 298 315 351 329 325 26 92 84 91 102 105 129 116 99 79 46 70 87 64 52 67 38 95 108 120 138 138 149 155 157 157 154 150 147 145 145 146 146 144 146 147 144 137 132 129 126 122 120 121 123 126 126 127 126 127 127 124 122 122 123 126 126 125 127 128 129 132 136 138 139 138 138 137 136 136 131 120 115 124 132 126 125 122 124 125 119 115
155 150 148 147 185 256 216 229 250 282 337 344 340 349 19 66 109 101 103 106 118 139 106 97 69 343 58 86 78 68 94 92 116 122 132 149 151 153 155 157 157 153 150 149 147 148 148 145 144 142 143 142 136 132 129 127 126 126 127 129 130 130 129 130 130 128 124 122 123 122 124 124 125 128 130 131 132 134 134 134 135 133 130 130 130 123 115 114 122 126 120 120 118 119 121 119 114
154 153 155 155 316 121 296 261 259 289 326 331 304 9 59 106 127 115 109 107 109 96 92 108 89 299 63 78 101 107 111 111 129 138 132 149 153 152 154 157 155 152 151 150 149 150 148 146 143 141 142 141 139 136 133 131 132 133 133 133 133 132 133 133 131 129 126 123 123 123 124 125 127 130 132 132 131 133 129 125 124 121 121 124 123 115 112 115 121 121 116 115 114 115 116 113 110
151 151 179 279 316 201 338 302 302 299 314 296 262 61 112 115 120 118 114 106 77 74 74 85 104 110 81 60 46 92 133 122 136 147 138 148 152 152 154 156 154 152 152 151 151 151 150 150 148 148 148 147 147 145 139 137 138 138 137 137 136 135 136 134 131 130 131 128 126 124 126 127 128 132 133 130 130 131 119 114 116 116 119 120 113 110 110 112 115 115 113 114 113 111 106 104 109
150 140 205 258 268 236 351 304 301 307 293 250 260 124 131 117 120 126 121 109 74 60 60 87 114 108 85 83 76 64 107 125 138 152 149 150 151 152 154 156 154 153 153 153 153 153 154 156 155 154 155 156 155 153 149 146 147 145 143 141 140 139 140 139 137 134 133 133 132 130 132 129 126 129 127 119 113 108 105 107 110 113 116 113 109 110 109 107 109 110 110 110 109 107 104 105 113
155 157 279 243 282 167 301 284 271 264 214 187 52 112 130 122 126 126 110 92 84 83 94 116 118 92 76 96 103 55 82 120 140 150 150 148 150 152 154 156 154 153 155 156 154 154 157 157 156 154 155 160 158 158 157 156 155 148 147 146 143 143 142 143 143 138 136 138 138 136 134 128 121 119 110 100 95 95 99 104 102 101 106 106 109 110 108 107 108 109 109 109 107 106 105 103 104
158 216 298 304 311 7 280 290 259 249 358 38 85 109 111 108 92 85 89 80 97 107 108 139 114 97 106 89 92 72 89 121 136 143 147 149 150 152 155 158 157 156 157 157 155 156 157 155 154 151 154 159 158 161 163 162 158 152 152 149 146 144 141 142 142 139 140 144 142 138 133 126 114 103 94 88 95 110 111 108 104 101 92 97 106 106 104 105 106 108 108 110 106 102 102 99 98
145 228 302 322 320 2 309 317 304 307 31 51 96 112 96 75 69 66 83 89 92 104 105 91 79 113 124 94 85 97 116 129 134 139 148 150 150 152 155 160 160 159 158 159 157 156 154 152 154 155 158 161 160 163 165 162 157 156 155 150 146 144 144 143 141 141 145 148 146 140 131 122 109 101 103 110 123 125 116 113 116 114 102 93 96 98 99 101 103 107 109 108 100 97 98 96 98
106 214 285 323 3 341 294 324 332 15 80 92 100 113 91 70 82 65 75 87 68 108 122 91 92 119 110 95 87 114 127 132 135 141 149 150 149 152 155 160 163 161 160 159 157 155 153 154 158 160 163 163 162 162 161 161 157 155 155 152 149 149 149 146 144 148 150 150 147 138 134 129 119 120 127 133 130 123 119 119 121 119 113 102 94 95 99 101 103 105 106 101 97 97 94 92 99
316 191 124 21 343 246 242 296 305 76 116 125 136 145 115 102 97 106 100 99 114 123 144 133 140 141 100 104 113 121 128 130 138 145 149 149 149 152 156 160 163 162 160 159 157 158 157 158 163 164 165 164 162 159 158 159 158 155 155 154 152 153 150 149 151 151 152 151 146 138 140 137 129 130 130 128 122 119 122 123 120 115 113 109 102 98 99 101 102 103 100 96 97 97 93 93 100
287 209 81 23 228 232 257 287 272 123 111 152 142 147 128 115 108 129 107 102 125 130 146 140 152 147 99 116 120 129 132 135 142 145 147 147 149 152 157 161 162 162 159 160 161 161 161 161 164 165 164 161 160 159 157 158 158 158 157 156 155 154 152 152 153 150 153 152 146 143 144 142 134 128 124 122 120 119 123 123 121 117 112 108 105 101 99 100 100 99 98 96 95 92 92 96 100
231 225 97 296 282 267 257 225 225 150 269 195 126 142 139 76 102 120 107 118 130 144 115 122 136 109 106 135 135 145 141 143 146 145 147 146 148 152 157 160 161 161 160 163 164 163 161 162 164 164 163 161 163 161 160 162 160 162 158 158 158 156 156 151 150 148 151 151 145 142 140 138 126 114 117 121 123 126 127 123 119 118 113 106 104 102 100 98 97 96 95 95 94 90 90 92 95
209 280 95 274 316 306 234 190 193 152 228 185 134 147 124 59 112 112 99 125 123 129 111 108 133 100 140 167 155 158 147 147 148 146 145 143 145 149 153 157 160 161 163 165 165 164 163 164 164 164 167 164 167 164 164 166 163 165 161 162 163 159 159 150 150 150 150 149 137 137 138 127 113 109 117 122 127 128 122 119 117 118 115 109 107 105 101 97 95 93 93 96 97 96 93 91 90
212 285 36 307 304 288 238 181 99 124 232 151 135 151 117 77 106 107 76 109 117 138 119 134 211 135 155 169 144 146 147 148 147 145 142 138 140 143 148 154 158 161 164 166 166 166 164 167 167 167 170 167 168 166 168 170 165 165 163 164 166 159 155 152 156 155 151 143 133 140 139 123 118 122 124 126 130 124 117 117 114 114 114 113 111 107 103 99 98 94 94 96 97 97 96 94 93
231 256 299 304 264 250 224 171 150 167 193 132 149 169 131 116 85 91 160 65 113 138 79 127 173 92 133 132 134 142 146 146 145 143 139 136 138 141 146 152 157 161 165 168 169 167 167 170 170 168 169 168 169 168 171 172 166 164 162 163 162 158 155 157 166 155 144 136 137 144 137 130 130 130 127 132 132 122 121 117 111 110 109 111 111 109 105 104 105 103 99 95 96 95 96 94 92
217 187 198 254 224 211 214 184 173 158 160 150 167 172 140 141 138 155 127 68 89 81 51 94 62 77 111 122 135 143 144 144 145 144 141 140 142 143 148 156 160 164 168 171 172 171 171 173 173 170 167 169 170 172 176 170 166 163 160 162 160 161 160 160 163 149 144 144 148 148 140 141 139 132 128 126 120 116 120 116 111 109 109 110 110 109 109 112 114 114 108 99 98 94 93 97 96
210 246 182 244 219 218 257 186 165 150 156 152 164 171 152 147 147 174 152 126 128 104 98 104 88 97 113 126 140 146 144 145 148 148 146 147 148 150 153 161 165 169 172 173 175 175 177 176 175 174 170 172 172 176 178 165 165 162 156 164 163 163 165 160 159 154 158 159 156 149 143 145 139 131 127 120 116 115 114 111 110 106 109 112 111 111 113 118 124 124 116 109 103 91 86 90 92
206 208 216 247 230 256 283 197 191 183 146 146 163 171 158 149 145 171 145 136 153 150 147 132 125 132 130 137 146 147 145 148 152 151 151 151 153 156 159 165 169 173 176 175 175 177 181 179 177 177 174 175 174 177 178 165 166 163 156 166 165 165 168 163 163 160 162 163 157 151 145 144 139 132 127 123 124 123 117 117 116 111 114 117 117 121 121 126 136 133 122 117 107 91 81 76 76
200 188 225 260 269 295 286 208 170 136 140 147 156 158 155 150 145 154 136 137 188 192 181 157 147 146 143 149 154 150 149 151 155 156 156 155 157 162 166 171 174 175 176 175 176 179 183 183 180 180 179 179 178 180 178 170 168 165 164 169 167 168 171 165 162 161 162 163 158 151 146 144 141 136 130 126 127 128 127 124 118 113 116 121 129 135 133 136 143 136 126 125 112 94 83 73 70
251 233 251 273 296 295 288 102 127 125 122 138 152 162 153 139 150 168 158 164 201 189 179 154 148 151 150 155 156 152 153 155 160 162 161 160 161 165 170 173 175 176 176 177 178 180 184 185 185 184 185 183 181 183 180 175 172 171 172 172 170 171 173 169 165 164 163 163 160 153 151 150 149 143 134 132 130 127 128 126 118 112 114 126 136 139 137 138 142 138 135 135 120 107 101 82 71
252 269 266 267 267 264 265 136 149 140 134 158 166 157 135 139 170 180 177 185 156 152 154 146 152 156 153 155 158 157 159 163 166 167 166 165 165 168 171 173 177 178 178 180 180 180 184 187 188 189 189 186 184 186 184 180 178 177 177 176 176 175 177 178 173 171 168 165 166 161 159 159 157 149 142 141 140 133 133 135 131 115 119 137 135 134 135 135 138 140 142 144 132 124 115 87 70
226 271 279 272 261 251 256 183 167 161 158 167 149 137 154 165 167 172 188 186 137 144 143 144 151 154 153 156 161 161 161 166 168 171 171 169 170 171 173 176 179 180 178 181 182 181 185 189 191 192 193 190 187 189 189 186 183 181 182 183 183 181 182 183 181 177 173 171 170 169 167 164 161 154 147 146 147 147 147 153 154 135 138 142 135 132 132 131 135 140 145 149 144 135 103 70 69
219 248 265 273 265 256 259 197 169 172 161 141 137 156 176 175 146 167 190 170 146 144 138 144 148 152 159 161 161 161 162 166 168 170 173 173 171 170 174 178 179 181 181 181 183 184 187 189 192 195 195 193 190 192 195 193 188 186 187 188 187 185 185 187 187 183 179 177 175 173 171 167 167 162 156 152 151 154 157 165 161 144 144 142 136 133 131 130 132 139 148 152 147 123 79 77 76
212 234 259 272 276 272 264 204 173 171 157 138 155 168 173 171 138 170 187 162 151 142 141 148 150 158 165 164 163 164 165 168 171 171 173 174 171 171 176 180 181 184 185 184 186 188 191 193 196 199 197 195 193 195 199 198 193 192 193 191 190 190 189 191 192 191 188 187 184 182 177 174 174 170 166 164 161 161 161 162 153 145 146 143 140 140 137 135 137 142 150 149 146 114 81 83 72
255 262 274 267 272 279 259 205 173 157 157 157 159 161 174 192 181 197 182 157 150 141 146 153 154 164 168 165 165 166 170 173 172 169 169 171 173 175 177 181 185 186 187 186 190 193 194 197 201 202 200 198 196 197 201 201 198 197 197 194 194 194 193 195 195 198 199 197 197 192 184 177 181 179 174 176 175 171 165 158 152 149 149 149 150 153 153 153 153 156 158 160 159 117 73 52 35
296 290 297 282 289 293 254 179 165 152 153 165 138 103 155 217 275 212 169 153 152 146 151 159 160 168 170 166 165 168 173 173 173 170 171 175 177 179 180 184 185 186 189 190 192 194 196 200 203 204 203 202 200 199 203 204 202 201 200 198 200 200 198 199 200 202 207 209 206 198 192 183 188 194 184 181 184 180 170 162 157 156 157 160 163 166 168 173 178 177 174 176 174 134 15 332 334
287 283 308 298 329 314 253 148 162 165 151 161 128 78 207 220 237 177 156 152 153 151 155 163 165 170 172 166 165 171 174 172 175 178 180 180 181 182 184 187 186 186 191 193 193 194 197 200 202 205 205 205 203 202 205 207 206 205 203 201 203 204 203 204 205 206 211 216 215 206 203 200 199 204 200 192 191 186 178 172 169 169 171 175 175 176 180 187 195 196 188 190 191 186 239 282 308
290 276 111 303 348 323 281 112 154 164 148 165 152 140 240 220 216 160 153 155 151 154 161 167 168 172 175 169 166 173 175 175 180 184 185 184 184 186 187 189 189 188 190 191 193 194 196 198 201 205 206 207 206 206 207 208 209 209 207 205 205 209 209 210 212 214 215 218 222 220 216 217 214 211 213 210 204 200 193 187 187 189 194 195 192 191 193 197 201 201 198 205 211 204 214 235 282
313 292 48 348 356 289 313 62 151 152 163 175 170 271 259 228 198 165 161 158 154 160 166 169 171 173 177 174 170 175 179 182 185 186 187 186 187 189 189 190 190 189 188 190 194 195 195 196 200 204 207 208 206 207 209 208 210 210 208 207 208 212 215 218 220 222 223 222 225 228 228 229 226 221 222 223 220 219 215 208 203 205 209 212 210 208 207 204 200 202 205 217 224 216 215 221 236
3 331 310 340 29 267 320 69 164 156 159 179 175 266 274 260 175 161 167 162 158 163 168 171 174 176 179 178 174 177 182 185 187 187 189 190 189 190 191 191 190 190 190 192 194 194 194 197 200 203 208 209 207 207 208 207 209 209 209 209 210 214 217 222 225 228 230 230 231 233 235 237 235 231 227 229 229 229 229 225 216 213 216 218 219 220 217 212 205 204 209 220 226 222 221 228 228
357 64 255 296 38 298 326 358 189 146 113 181 209 234 273 285 164 157 167 169 164 164 170 174 175 179 180 179 178 178 182 185 188 189 190 191 191 192 192 192 193 193 194 194 194 193 193 196 200 203 207 209 208 206 206 207 208 209 210 210 214 218 221 226 230 234 236 236 238 239 241 240 240 238 234 233 232 230 232 231 226 225 224 222 224 226 221 216 213 210 213 218 221 223 227 237 234
315 18 21 261 75 331 323 336 265 141 129 188 223 236 256 297 162 160 168 172 170 170 176 177 178 181 181 180 181 182 184 186 191 191 190 191 193 193 193 194 195 195 195 196 196 196 195 196 200 203 207 210 208 206 206 207 208 209 212 214 219 224 229 235 240 242 243 242 243 244 246 245 243 242 237 234 230 227 227 225 226 227 225 222 224 226 221 218 218 215 216 219 220 225 233 240 242
195 45 52 323 1 355 304 315 272 189 191 203 210 235 256 282 164 167 171 172 178 180 179 179 180 182 183 184 184 184 188 191 193 191 190 192 193 193 194 195 195 195 196 197 198 198 196 197 200 202 206 210 208 207 208 208 210 212 215 219 226 232 238 243 248 250 250 249 248 248 248 247 246 243 236 231 227 224 220 215 216 218 217 217 220 222 219 218 219 217 217 220 225 233 242 246 249
149 149 133 244 306 307 272 281 262 197 200 231 205 227 248 241 179 179 175 174 183 184 178 181 184 185 187 189 191 188 191 195 193 190 190 191 193 193 194 194 195 195 195 196 197 197 196 196 198 201 205 208 208 207 209 210 212 215 220 224 229 234 239 246 250 252 253 252 251 251 248 245 245 239 229 227 226 224 219 213 212 213 213 213 215 216 217 218 219 219 218 221 231 241 247 250 255
128 126 140 256 274 285 260 267 274 196 173 243 221 223 243 230 191 188 179 177 184 182 182 187 186 189 192 193 196 194 193 194 188 190 191 191 193 194 193 194 194 195 195 195 195 196 197 196 197 199 202 206 207 207 208 209 210 213 219 224 228 232 237 245 250 249 250 250 250 249 243 240 238 231 225 224 225 224 219 214 214 215 213 214 217 217 218 219 220 220 218 222 235 244 250 250 254
104 112 308 306 261 260 254 249 277 228 171 255 239 227 250 240 204 191 180 182 189 187 185 188 188 191 195 196 199 198 192 185 183 189 191 191 192 193 193 193 192 193 194 194 195 196 198 198 198 199 200 203 207 207 207 209 210 211 215 221 226 231 238 243 245 244 245 246 246 241 234 232 230 224 221 222 223 221 216 213 215 218 217 216 218 218 217 217 217 216 216 224 233 240 247 248 250
125 113 86 290 260 282 287 267 295 49 169 272 252 210 249 246 217 196 187 188 194 194 191 189 187 188 194 198 198 195 190 184 184 188 190 190 191 192 192 192 193 194 194 195 197 197 198 199 199 199 199 201 206 208 208 209 210 211 215 221 225 232 239 240 239 240 240 242 240 234 228 227 225 221 219 218 219 218 215 214 216 218 217 217 218 216 214 214 213 213 216 223 227 235 246 249 242
159 150 151 247 250 42 300 285 335 22 219 251 231 207 263 259 227 206 197 194 194 197 197 193 189 191 197 197 194 192 191 190 189 188 188 189 190 190 191 192 194 194 194 195 196 196 197 199 200 199 199 201 204 207 209 210 211 212 218 225 230 236 238 235 236 237 237 237 234 229 225 222 222 222 219 218 219 219 218 217 219 219 218 219 222 220 216 215 215 215 216 216 219 232 253 259 238
251 200 191 205 174 173 230 282 335 335 295 253 198 14 305 274 235 222 200 193 196 195 193 194 199 203 201 197 195 195 194 193 193 191 189 188 189 190 191 192 193 193 194 195 196 196 197 199 200 200 201 202 204 205 207 208 211 213 216 221 227 229 229 228 229 230 231 231 229 225 222 220 219 218 219 220 222 223 221 220 220 219 219 221 225 224 220 219 219 217 214 211 217 237 270 281 242
304 231 207 189 168 205 239 295 353 357 341 296 89 49 306 297 259 227 187 189 195 185 189 197 202 204 199 198 200 199 197 196 196 195 190 188 189 191 193 193 193 194 196 197 198 198 199 200 201 201 202 203 204 205 205 206 209 211 210 210 211 211 213 219 224 226 228 228 227 224 222 220 217 215 216 220 223 223 220 218 219 218 221 224 225 223 219 218 219 216 212 211 218 243 276 285 259
291 243 201 182 175 206 239 256 42 40 276 284 76 95 274 309 285 222 187 193 196 181 192 200 199 200 199 201 202 199 199 198 198 199 195 191 190 191 194 194 194 196 198 198 198 199 199 200 200 201 202 203 204 204 204 204 206 209 210 210 210 209 210 217 224 228 231 230 227 225 223 221 218 216 216 218 220 221 218 217 218 220 222 225 225 220 217 217 217 215 213 216 223 242 265 271 270
227 230 161 151 171 198 215 186 183 229 265 311 17 106 213 296 284 233 175 180 197 194 200 202 200 201 200 202 205 203 200 198 198 199 199 198 194 192 194 196 198 199 199 197 197 199 200 200 201 202 202 203 204 204 203 203 205 208 211 211 212 213 216 221 225 228 232 231 227 226 225 223 219 217 218 217 217 218 217 217 217 219 221 223 223 219 217 216 213 214 216 220 226 237 254 263 268
236 210 156 152 172 185 183 159 187 256 352 319 320 63 159 275 289 288 145 170 205 210 209 203 198 200 200 203 206 205 202 199 198 199 201 202 200 198 196 197 200 200 199 198 198 199 200 201 201 201 202 203 203 203 203 203 204 207 210 211 212 216 222 227 228 229 231 228 226 226 225 225 222 220 219 219 218 218 218 217 217 219 219 221 223 220 217 214 211 214 220 224 227 232 245 256 262
233 158 148 149 159 174 157 145 162 58 41 270 276 256 143 278 293 45 126 185 215 216 214 206 198 199 202 205 206 204 202 201 201 202 202 203 204 203 199 197 200 201 200 200 200 200 199 199 200 200 202 204 203 203 202 203 203 206 209 211 214 217 220 224 226 227 227 224 224 226 225 225 224 223 222 220 220 220 220 219 218 219 219 221 223 222 219 216 214 216 221 226 227 229 240 253 259
222 77 118 101 64 66 81 95 110 79 304 258 256 210 145 288 294 225 167 237 226 215 212 205 198 202 205 206 205 201 200 201 201 203 204 205 206 205 201 198 200 201 201 200 200 200 199 198 199 200 203 204 204 203 202 202 203 204 208 211 215 217 217 218 218 219 220 220 222 224 224 224 224 224 224 223 223 222 221 221 221 222 224 224 224 224 222 219 218 218 219 222 224 226 238 255 260
101 85 107 109 30 21 44 7 70 119 248 264 250 172 132 148 283 318 324 322 313 259 226 211 204 203 205 204 202 201 200 199 198 201 203 203 204 204 201 200 200 199 198 199 199 199 198 198 199 200 201 203 204 204 203 203 203 204 207 211 215 217 217 216 216 217 218 218 220 222 223 223 223 224 224 225 225 223 222 223 224 226 227 227 226 225 223 221 222 222 220 221 224 225 234 251 255
87 112 88 93 17 19 88 277 163 173 247 260 225 139 131 189 210 343 344 348 350 339 310 262 228 213 205 200 198 196 197 198 197 198 200 199 199 201 201 200 198 197 197 198 198 198 198 199 199 199 200 201 203 204 204 204 204 205 207 210 214 216 217 218 218 218 219 221 221 221 221 221 222 223 223 224 225 223 223 223 223 225 227 228 229 228 226 226 226 226 224 225 228 228 233 244 250
51 128 118 120 129 97 181 236 158 206 242 257 250 203 221 219 166 7 358 353 350 354 354 340 297 240 217 204 198 193 193 196 196 196 198 199 199 199 201 200 197 197 198 198 198 198 198 199 199 199 201 201 202 203 205 206 206 207 209 211 213 215 217 219 221 220 220 222 224 224 224 223 223 224 225 225 225 224 225 225 224 226 228 230 231 231 231 231 232 232 230 232 235 233 234 240 246
327 180 141 127 149 141 182 208 162 184 225 295 302 216 185 169 146 36 12 356 357 4 1 0 356 325 244 202 194 195 197 197 195 196 199 200 198 198 200 199 197 197 198 198 198 197 197 199 199 200 201 201 201 202 204 206 207 209 209 211 213 214 217 220 223 224 224 224 226 227 228 228 228 229 229 231 229 226 226 227 228 230 232 234 235 235 236 235 236 235 234 238 242 239 237 240 245
261 160 102 101 161 152 149 182 175 169 145 112 219 206 238 203 176 25 15 8 10 11 5 7 6 354 338 207 193 197 203 203 198 199 202 200 196 197 199 199 198 198 198 198 198 197 198 199 200 201 203 202 202 202 204 206 208 208 209 211 212 214 216 220 223 226 227 228 228 230 232 233 233 234 234 236 235 231 228 228 230 234 236 239 240 239 238 238 239 240 240 242 245 243 240 241 244
243 60 112 197 169 134 118 181 258 78 116 161 283 351 337 324 336 358 2 8 12 12 9 7 3 360 360 342 239 214 206 205 205 204 202 199 193 195 198 199 198 197 197 199 199 199 199 199 200 202 203 203 203 204 205 206 207 207 209 210 212 213 215 218 222 226 228 229 229 231 233 236 237 238 238 239 239 236 233 231 232 235 238 241 241 239 239 240 241 243 245 247 250 249 244 242 244
106 87 239 240 124 111 107 118 10 46 117 169 26 57 21 12 339 340 356 5 5 5 5 5 4 6 4 351 331 287 231 212 212 210 203 198 196 196 197 199 199 197 198 199 200 200 200 200 201 201 201 203 204 205 206 207 207 207 209 210 211 213 215 218 221 224 227 229 229 230 232 235 238 239 240 243 243 240 238 237 236 236 237 240 241 240 241 243 243 244 247 252 254 252 248 246 248
81 129 262 94 114 133 27 99 139 116 142 126 53 64 46 29 323 336 359 359 355 356 1 7 9 5 359 349 343 328 284 231 217 215 207 202 201 199 197 198 199 198 198 199 199 200 200 202 203 203 203 204 205 206 207 208 208 208 209 210 211 213 216 217 220 222 225 228 230 231 232 235 237 238 241 244 245 243 241 240 240 239 239 241 243 243 243 245 247 245 245 251 254 251 248 249 252
20 36 9 41 114 148 81 86 141 147 158 153 85 40 34 356 316 343 360 350 351 356 358 6 8 5 1 352 345 342 328 275 229 217 212 210 206 202 200 199 199 197 197 198 197 198 200 202 203 204 205 205 205 205 206 207 209 209 210 211 212 214 216 217 219 221 224 227 231 233 233 235 236 237 240 243 245 245 244 243 242 242 242 243 245 246 245 246 249 247 244 247 252 252 250 252 255
12 31 22 4 350 30 80 51 50 112 139 150 113 80 27 303 316 1 1 349 356 1 360 1 0 3 7 2 355 350 346 332 288 236 218 214 211 207 204 202 199 197 195 195 196 198 200 202 203 204 204 204 204 206 207 208 209 209 210 211 212 214 215 217 218 220 223 227 230 232 234 236 237 238 240 242 243 245 246 245 244 244 245 246 247 247 246 246 248 247 244 245 251 253 253 255 256
48 52 27 348 342 52 87 58 345 47 100 131 126 119 164 291 332 17 8 0 359 3 6 2 360 4 8 11 9 1 355 352 338 300 240 217 209 210 209 204 199 197 195 194 196 197 199 201 203 204 204 204 205 206 207 209 209 209 211 212 213 214 215 216 217 219 222 225 228 231 233 235 238 240 240 241 242 244 246 246 244 245 245 246 248 248 248 248 249 248 246 245 249 253 255 255 255
Height
777 779 780 781 781 783 784 784 797 797 797 807 800 798 795 784 784 787 789 788 787 785 779 779 779 781 786 791 794 794 795 798 802 811 813 800 796 800 801 803 804 804 806 807 808 809 810 813 814 816 817 819 820 821 823 824 824 825 825 826 827 828 828 829 829 830 831 831 832 833 833 834 834 834 835 835 835 836 836 836 837 837 837 838 838 839 840 842 842 842 842 843 843 843 844 844 844
777 779 780 782 781 784 786 784 801 803 801 808 798 796 792 784 787 789 790 788 787 784 778 778 780 782 783 784 787 792 796 796 795 797 798 796 798 801 802 804 805 806 807 808 810 811 813 814 816 817 818 820 821 822 824 824 825 826 826 827 828 829 829 830 830 831 832 832 833 833 834 834 835 835 835 835 835 836 836 836 836 837 838 838 838 839 841 843 842 842 843 843 844 844 844 844 845
777 779 780 783 782 784 785 788 801 805 806 810 801 792 788 788 790 789 787 785 784 780 779 779 781 784 785 789 791 796 800 796 794 795 796 797 798 800 803 805 806 807 808 810 811 813 814 816 817 818 819 820 822 823 824 825 826 827 828 828 829 830 830 831 832 832 833 833 834 834 834 835 835 835 836 836 836 836 836 836 836 837 838 838 838 840 842 844 842 842 843 844 845 845 845 845 846
777 779 780 781 784 786 789 795 800 802 806 808 804 792 787 790 789 786 784 782 781 779 780 781 786 787 787 794 795 797 800 797 795 795 796 798 797 799 802 805 807 808 809 811 812 814 815 817 818 819 820 821 823 824 825 826 827 828 829 829 830 831 832 832 833 833 834 834 834 835 835 835 836 836 836 836 837 837 837 837 838 839 839 839 839 840 843 845 843 843 845 845 846 847 847 846 847
778 780 780 780 786 789 791 797 797 801 804 801 802 793 787 787 786 786 783 781 780 780 782 783 790 788 786 792 793 797 799 797 796 795 796 798 798 800 802 806 808 809 811 812 813 815 816 817 818 820 821 822 823 825 826 827 828 829 830 830 831 832 833 833 834 834 835 835 835 835 835 836 836 836 837 837 837 838 838 839 840 841 841 840 839 841 844 846 845 844 845 846 847 848 848 847 848
778 780 780 780 784 785 792 801 800 801 796 792 797 791 786 784 783 785 782 781 778 778 780 782 789 789 792 792 791 795 795 796 797 795 796 797 799 801 804 806 808 810 812 813 815 816 817 818 819 820 822 823 824 826 827 828 829 830 831 831 832 833 834 834 835 835 835 836 836 836 836 836 837 837 837 838 838 839 840 841 842 843 843 841 841 842 844 846 847 845 845 846 849 850 850 849 850
778 782 782 784 785 785 798 805 801 801 791 786 790 788 785 783 782 783 783 783 781 780 780 783 783 789 798 794 793 794 791 794 794 796 797 797 800 803 805 807 809 811 813 815 816 817 818 819 820 822 823 824 825 827 828 829 830 830 831 832 833 834 834 835 835 836 836 836 836 837 837 837 837 838 838 839 841 842 843 843 844 845 845 843 843 843 844 847 848 847 847 848 850 851 851 851 852
779 782 782 788 793 792 800 803 798 796 789 783 784 783 783 781 780 782 784 785 786 784 783 785 781 792 800 793 798 796 791 794 794 797 798 799 801 804 807 808 810 812 814 816 817 819 819 821 822 823 824 825 826 828 829 829 830 831 832 833 834 835 835 836 836 836 837 837 837 837 838 838 838 839 840 842 843 845 845 845 846 848 848 845 845 845 846 847 849 850 850 851 852 852 852 852 853
779 783 784 791 797 798 801 800 796 791 786 784 782 782 780 779 779 782 785 786 785 785 786 785 782 794 801 795 800 796 793 795 795 798 799 801 802 804 808 809 811 812 815 817 819 820 820 822 823 824 825 827 828 829 830 830 831 832 833 834 835 835 836 837 837 837 838 838 838 838 839 839 840 841 843 844 845 845 845 845 846 849 850 848 847 846 847 849 850 851 852 853 853 853 853 852 853
781 784 787 793 798 805 805 800 796 791 786 784 783 781 780 779 780 782 785 787 785 786 786 783 784 794 798 799 801 797 796 796 797 800 801 803 804 806 809 810 812 813 816 818 819 821 822 823 824 826 826 828 829 830 831 831 832 833 834 835 836 836 837 838 838 839 839 839 839 839 840 841 842 843 844 844 844 845 846 846 846 847 849 850 850 849 849 850 851 852 852 853 854 854 853 853 854
786 786 786 797 804 808 807 801 797 792 787 784 783 781 780 779 781 784 785 787 786 787 786 784 791 794 796 801 801 798 797 797 798 801 803 805 806 807 809 811 813 814 817 818 820 822 822 824 825 827 827 829 830 831 832 832 833 834 835 836 836 837 838 839 839 839 839 840 840 841 841 842 843 843 844 843 843 845 846 847 847 846 847 849 851 851 851 852 852 852 853 854 855 855 855 855 856
791 790 790 803 808 805 802 801 797 792 789 786 787 782 778 779 782 785 786 788 787 789 787 785 790 791 798 803 800 798 798 800 801 802 804 806 807 809 810 812 814 816 818 819 821 822 823 825 826 827 828 829 830 832 832 833 834 835 836 837 837 838 839 840 840 840 840 841 841 842 842 843 844 844 845 845 845 846 847 848 848 848 848 849 851 853 853 853 853 853 854 855 856 856 857 857 857
791 792 795 803 802 802 799 798 795 793 792 788 786 781 778 781 784 785 785 788 787 791 787 781 783 786 799 803 798 799 799 801 802 804 806 807 809 810 812 813 815 817 819 821 821 822 824 825 827 828 829 830 831 832 833 834 835 836 837 837 838 839 839 840 841 841 841 842 842 843 843 844 845 846 847 847 846 847 849 850 849 850 850 851 851 853 854 854 854 854 855 856 857 857 858 858 859
788 788 794 802 799 798 796 796 795 795 795 786 783 781 779 781 782 782 784 790 790 788 783 777 779 788 799 801 801 800 799 801 803 806 807 808 810 810 813 814 816 818 820 821 822 823 825 826 827 828 830 831 831 832 834 835 836 837 838 838 839 840 840 841 841 842 843 843 844 844 844 845 846 848 848 848 848 849 850 851 851 851 852 852 853 854 855 855 855 855 856 858 859 859 859 860 860
785 785 791 801 801 798 792 792 793 795 793 784 783 781 781 781 779 782 784 790 790 781 778 779 779 789 798 799 802 798 797 801 803 806 808 809 811 812 814 815 817 819 820 822 823 825 825 827 828 829 830 831 832 833 835 836 837 838 839 839 840 841 841 842 842 843 844 844 845 845 845 846 847 848 848 849 850 850 851 852 853 853 853 854 854 855 856 856 857 857 858 859 860 861 861 861 861
781 784 794 802 803 799 791 788 790 793 789 782 781 779 784 783 777 783 782 782 786 779 779 783 780 785 792 794 796 794 796 801 803 807 808 810 812 813 815 816 819 819 821 823 824 825 826 828 828 830 831 832 833 834 835 836 838 839 840 840 841 842 842 843 843 844 845 846 846 845 846 847 848 849 849 850 851 852 853 854 854 854 855 855 856 857 857 858 858 859 859 860 861 862 862 862 863
779 787 800 804 803 798 788 786 788 788 784 782 781 779 786 788 780 781 778 777 784 784 782 784 781 781 786 789 792 793 797 801 803 807 808 810 812 814 816 817 819 820 822 824 825 826 827 828 829 830 831 832 834 835 836 837 838 839 840 841 842 843 843 844 844 844 845 846 847 846 847 849 849 851 851 852 853 853 854 855 855 856 856 857 857 858 859 859 860 860 861 861 861 862 863 863 863
785 794 802 803 800 792 781 780 780 778 780 782 781 779 784 788 785 780 780 784 785 787 786 785 784 783 785 788 792 796 798 801 803 806 808 810 812 814 816 818 819 821 823 824 826 827 827 828 829 831 832 833 834 835 837 838 839 840 841 842 843 843 844 845 844 845 846 847 848 848 849 850 851 852 852 853 853 853 855 856 856 857 858 858 859 859 860 860 861 862 862 863 863 863 863 864 864
788 795 801 800 791 782 774 773 773 773 776 779 780 779 781 784 784 781 786 792 789 791 792 789 791 790 789 790 794 797 798 801 804 806 808 809 812 813 816 818 820 821 823 824 826 827 828 829 830 831 832 833 835 836 837 838 840 840 842 843 843 844 845 846 846 847 848 848 850 850 851 851 851 852 852 853 854 854 856 856 857 857 859 860 860 860 861 861 862 863 863 864 864 864 864 865 865
787 792 802 795 782 778 771 770 770 769 771 777 780 778 780 781 779 781 787 793 792 793 794 791 795 795 793 793 794 797 799 802 805 807 808 810 812 813 815 817 818 821 822 824 826 827 828 829 830 831 833 834 835 837 838 839 840 841 842 843 844 845 845 847 847 848 849 849 850 850 851 851 852 852 853 854 855 856 856 857 858 858 860 860 861 861 862 862 863 863 864 864 865 865 865 865 866
785 789 796 785 777 779 771 768 769 768 769 775 779 779 782 779 778 781 785 794 796 791 788 787 791 792 793 794 794 797 799 802 805 807 808 810 812 814 815 816 818 820 822 825 826 827 828 829 831 832 833 834 836 837 838 840 841 842 843 844 845 845 846 847 848 849 849 850 850 851 851 852 852 853 853 854 855 856 857 858 859 859 860 861 862 862 863 863 864 864 865 865 866 866 866 866 867
786 785 784 778 777 780 771 766 768 768 771 774 778 780 780 778 779 781 783 791 792 785 782 782 785 786 789 792 794 796 799 802 805 807 808 809 812 814 816 817 819 821 822 824 826 827 828 830 831 832 833 835 836 837 839 840 841 842 843 844 845 846 847 848 848 849 850 850 851 852 852 853 853 853 854 855 855 856 857 859 859 860 861 862 863 863 864 864 865 866 866 867 867 867 868 868 868
788 785 777 775 775 776 769 766 768 768 772 776 777 776 776 780 783 780 780 784 781 777 777 779 782 784 785 789 792 795 798 801 803 805 807 808 810 813 815 817 819 821 822 824 826 827 828 830 831 832 833 835 836 838 839 841 842 843 844 845 846 847 848 848 849 850 850 851 852 852 853 853 854 854 855 855 856 857 858 859 860 861 862 863 864 864 865 865 866 867 867 868 868 869 869 869 870
788 786 778 773 771 771 766 764 767 767 771 773 772 774 776 782 783 780 781 780 775 774 775 778 781 784 786 789 792 794 797 800 803 806 807 808 810 812 814 816 818 820 822 824 826 827 828 830 831 832 833 835 836 838 840 841 842 843 844 845 846 847 848 849 850 850 851 852 852 853 853 854 854 855 856 857 857 858 859 860 861 862 863 864 865 865 866 867 867 868 869 869 869 870 870 870 870
785 785 777 771 769 766 763 763 766 767 769 769 771 776 778 778 778 780 781 777 774 773 775 778 782 786 788 790 792 795 797 801 804 806 808 809 811 813 815 817 818 820 822 823 825 827 828 829 831 832 833 835 837 838 840 841 843 844 845 846 847 848 849 850 850 851 852 852 853 853 854 855 855 856 856 857 858 859 860 861 862 863 864 865 865 866 867 868 869 869 870 870 870 871 871 871 871
780 779 774 771 769 764 761 764 766 768 768 769 774 780 779 775 777 782 779 775 774 773 776 780 783 788 789 790 792 794 797 800 803 805 807 809 811 813 815 817 818 819 821 823 825 826 828 829 831 832 833 835 837 838 840 841 843 844 845 846 847 848 849 850 851 852 852 853 853 854 854 855 856 857 857 858 859 860 861 862 863 863 864 865 866 867 868 869 869 870 871 871 871 871 872 872 872
774 774 772 769 768 763 761 763 765 767 768 769 776 782 779 774 779 785 778 772 773 775 779 781 784 788 789 790 792 794 797 799 802 804 807 809 810 812 814 816 817 818 821 823 824 826 827 829 830 832 834 835 837 838 840 842 843 844 845 846 847 848 849 850 851 852 853 853 854 854 855 856 857 857 858 859 860 861 862 863 864 864 865 866 867 868 869 870 870 871 871 872 872 872 873 873 873
771 772 772 768 766 763 760 764 766 767 771 769 772 781 781 777 781 782 774 771 773 777 782 783 785 788 788 790 792 794 796 799 802 803 805 807 808 810 812 814 816 818 820 822 824 826 827 829 830 832 834 835 837 839 840 842 843 844 845 846 847 848 850 851 851 852 853 854 854 855 856 856 857 858 859 860 861 862 862 864 865 865 866 867 868 869 869 870 871 872 872 873 873 873 874 874 874
771 772 777 773 767 765 760 763 766 766 772 768 769 786 789 784 781 775 770 770 773 778 783 784 786 788 788 790 792 794 796 798 801 802 803 805 807 808 810 812 814 817 819 822 824 825 827 828 830 832 834 836 837 838 840 842 843 844 845 846 847 848 850 851 852 853 853 854 855 855 856 857 858 859 860 861 861 862 863 864 865 866 867 868 869 869 870 871 871 872 873 874 874 874 875 875 875
772 772 777 778 776 772 762 764 766 767 772 764 770 793 793 783 778 772 769 770 774 781 784 785 786 787 789 790 792 794 795 797 798 800 802 804 806 808 809 811 813 815 818 821 823 825 827 828 830 832 834 835 836 838 840 841 843 844 845 846 847 848 849 851 851 853 853 854 855 856 856 857 858 859 860 861 862 863 864 865 866 867 868 869 869 870 871 871 872 873 873 874 875 875 875 876 876
776 776 779 784 787 779 766 766 769 773 773 762 774 795 788 777 776 772 769 769 775 782 784 785 786 787 789 789 792 794 794 795 796 799 801 803 806 807 809 811 813 815 817 820 822 824 826 828 830 831 833 835 836 838 839 841 843 844 845 846 847 848 849 850 851 852 853 854 855 856 857 857 858 859 860 861 862 863 864 865 866 867 868 869 870 870 871 872 872 873 874 874 875 876 876 876 876
779 785 788 790 790 781 770 767 769 773 774 766 778 795 785 774 774 771 769 770 774 781 783 784 786 787 788 789 791 793 793 794 796 798 800 802 805 806 808 810 812 814 816 819 821 824 826 827 829 831 832 834 836 838 839 841 843 844 845 846 847 848 849 850 851 852 853 854 855 855 856 857 858 859 860 861 862 863 864 865 866 867 868 869 870 871 871 872 873 873 874 875 875 876 876 876 877
785 788 793 791 789 786 777 771 768 769 774 774 779 789 784 774 771 769 769 772 775 780 783 783 785 786 787 788 790 792 793 794 795 797 799 801 803 805 807 809 811 813 815 818 820 823 825 827 828 830 832 834 836 838 839 841 843 844 845 846 847 848 849 850 851 852 852 853 854 855 856 857 858 859 860 861 861 863 864 865 866 867 868 869 870 870 871 872 873 874 874 875 876 876 876 877 877
793 790 791 791 791 790 784 778 772 769 776 780 780 784 782 775 771 770 769 772 776 780 782 783 784 784 785 787 789 790 792 793 793 794 796 799 801 804 806 808 810 812 814 816 819 821 823 826 828 829 831 833 836 837 839 841 842 844 845 846 847 848 849 849 850 851 852 853 854 855 856 856 857 858 859 860 861 862 863 865 866 867 867 868 869 870 871 872 873 874 874 875 876 876 877 877 877
795 794 793 794 794 792 788 783 776 773 778 782 784 787 782 776 773 771 770 771 776 778 779 781 782 784 784 785 787 788 789 790 790 791 794 797 800 802 805 807 809 811 813 815 818 820 823 825 827 829 831 833 835 837 839 841 842 844 845 846 847 848 848 849 850 851 852 853 854 855 856 856 857 858 859 860 861 862 863 864 865 866 867 868 869 870 871 872 873 874 874 875 876 876 877 877 877
790 792 794 797 797 795 789 782 774 772 781 784 786 787 781 778 777 774 771 770 775 778 779 781 782 783 784 785 786 786 788 788 787 790 793 796 798 801 803 806 808 810 812 814 817 820 822 824 826 828 830 832 834 837 838 840 841 843 844 845 846 847 848 849 849 850 851 852 853 854 855 856 857 858 859 859 861 862 863 864 865 866 867 868 869 870 871 872 873 874 875 875 876 877 877 877 877
787 790 792 795 797 796 788 781 771 768 781 784 780 783 780 777 777 774 772 772 775 779 780 782 783 783 783 784 785 785 786 786 786 789 792 794 797 799 802 804 807 810 812 814 816 818 821 823 825 826 828 831 833 835 837 838 840 841 842 844 845 846 847 848 849 850 851 852 853 854 855 856 857 858 859 859 860 861 862 864 865 866 867 868 869 870 871 872 873 874 875 875 876 877 877 877 878
787 790 793 795 797 794 784 780 773 768 779 782 776 781 781 776 775 772 771 774 776 776 778 780 781 782 782 782 783 784 785 785 786 788 790 793 795 797 800 802 805 808 810 813 814 816 819 821 823 825 827 829 831 833 835 837 838 840 841 842 844 846 847 848 849 850 851 852 853 854 855 856 857 858 859 860 860 861 862 864 865 866 867 868 869 870 871 872 873 874 875 876 876 877 877 877 878
788 791 794 797 794 790 783 778 774 771 779 781 777 781 779 772 771 769 768 771 771 769 770 773 775 779 780 780 781 782 784 785 785 786 788 790 793 795 798 800 803 805 808 811 813 815 818 820 822 824 826 827 829 832 834 836 837 839 841 843 845 846 847 848 849 850 851 852 853 854 854 855 856 858 859 860 860 861 863 864 865 866 867 868 869 870 871 871 873 874 875 876 876 877 877 877 878
789 791 796 798 792 792 791 780 775 774 776 778 777 780 777 770 769 768 765 765 766 766 767 769 771 774 774 774 776 779 782 785 785 785 786 788 791 793 796 798 801 803 806 808 811 813 816 818 820 822 824 826 828 830 833 835 837 840 842 844 845 846 847 848 849 850 851 852 852 853 854 855 856 857 858 859 860 862 863 864 865 866 867 868 868 869 870 871 872 873 875 875 876 877 877 877 878
790 789 793 795 791 792 792 783 778 775 773 773 776 783 780 773 774 771 765 764 766 767 770 773 772 771 772 774 776 777 779 781 784 785 785 786 789 791 794 796 799 801 804 806 808 811 813 816 818 821 823 825 827 829 832 835 837 840 842 844 845 846 846 847 848 849 850 851 852 853 854 855 856 857 858 859 860 862 863 864 865 866 867 867 868 869 870 871 872 873 874 875 876 877 877 877 877
793 786 784 787 787 787 786 785 786 788 786 775 777 793 791 776 777 776 768 769 770 769 771 774 773 772 774 777 776 776 777 778 780 782 783 785 787 790 792 794 796 799 801 803 806 808 811 814 817 819 822 823 826 828 831 834 836 838 840 841 842 843 844 845 846 847 849 850 851 853 854 855 856 857 858 859 860 862 863 864 865 865 866 867 868 869 870 871 872 873 874 875 876 876 877 877 877
797 784 776 780 783 784 786 787 792 798 794 778 776 796 800 782 775 774 770 771 772 771 772 771 772 773 773 775 774 774 775 776 777 779 781 783 785 787 789 792 794 796 798 801 804 807 809 812 815 817 820 822 824 827 829 832 835 837 838 839 840 841 842 843 844 846 848 850 851 852 854 855 856 857 858 859 860 861 863 864 864 865 866 867 868 869 870 871 872 873 874 875 876 876 877 877 877
794 778 772 778 780 783 786 788 794 793 788 782 777 787 799 790 777 771 770 774 776 774 773 771 769 771 771 772 772 771 772 773 775 777 778 780 781 784 786 789 791 794 797 800 803 805 807 810 813 815 818 821 823 826 828 830 833 835 837 838 839 840 841 842 844 846 848 850 851 852 853 854 856 857 858 859 860 861 863 864 864 865 866 867 868 868 870 871 872 873 874 875 876 876 877 877 878
781 770 771 774 776 780 781 785 793 791 790 793 784 782 798 796 780 773 772 777 781 775 771 769 767 768 768 769 768 767 768 768 770 773 775 776 778 780 784 786 790 793 796 798 800 803 806 808 811 814 816 819 821 824 826 829 831 833 836 837 839 840 841 843 845 846 848 849 850 851 853 854 855 856 858 859 860 861 862 863 864 865 866 867 868 868 869 870 871 872 873 874 875 876 877 877 878
770 767 771 772 775 777 779 786 789 791 800 802 788 784 797 797 785 782 782 782 780 772 766 765 764 765 764 763 764 764 765 766 767 769 770 772 775 778 782 785 788 791 794 796 799 801 804 807 810 812 814 817 820 822 824 827 829 832 834 836 838 839 841 843 844 846 847 848 849 850 851 853 854 856 857 858 859 861 862 863 864 865 866 867 867 868 869 870 871 872 873 874 875 876 876 877 877
765 769 773 776 781 780 783 788 788 799 811 799 784 784 793 797 791 787 784 775 769 765 763 763 761 761 759 758 759 760 762 763 764 766 768 770 773 776 780 783 786 789 792 795 797 800 802 805 808 810 812 815 818 820 823 825 828 830 832 834 836 838 840 841 843 844 845 846 847 849 850 852 853 855 856 857 859 860 861 862 863 864 866 866 867 868 869 870 870 871 873 873 874 875 876 877 877
768 772 775 783 790 788 792 795 794 812 816 792 782 785 789 798 800 793 785 772 766 765 763 760 757 755 754 754 755 757 759 761 762 765 766 769 772 775 778 780 783 786 789 792 795 798 800 803 805 808 810 813 815 818 821 823 825 828 830 832 834 837 838 840 841 842 844 845 846 847 849 851 852 853 855 856 857 859 860 861 862 864 865 866 867 868 869 869 870 871 872 873 874 874 875 876 876
773 775 778 790 802 803 807 809 808 815 807 788 787 788 786 795 799 794 787 777 773 770 764 758 754 751 751 751 752 754 756 758 760 762 764 767 769 771 774 776 780 783 786 789 792 795 798 800 803 805 808 810 813 816 818 821 823 825 828 830 832 835 837 838 840 841 843 844 845 846 848 849 850 852 853 855 856 858 859 860 861 863 864 865 866 867 869 869 870 871 871 872 873 874 874 875 876
777 779 781 792 805 814 820 821 820 815 800 788 789 788 786 791 793 790 785 780 776 771 766 761 754 750 750 750 750 752 754 755 757 759 761 763 764 767 770 772 776 779 782 785 789 792 795 798 800 803 806 808 811 813 816 818 820 823 825 828 830 833 835 837 838 840 841 843 844 845 846 848 849 850 852 854 855 857 858 859 861 862 863 865 866 867 868 869 870 870 871 872 872 873 874 874 875
779 779 779 785 794 805 812 812 810 806 799 793 790 788 787 790 791 787 782 780 775 771 768 762 756 752 749 749 752 753 753 753 754 756 757 758 759 762 766 769 772 776 779 782 786 789 792 794 797 800 803 806 809 811 814 816 818 821 823 826 828 831 833 835 837 838 840 842 843 845 846 847 848 849 851 853 855 856 858 859 860 861 863 864 865 866 867 868 869 870 870 871 871 872 873 874 874
781 779 780 785 787 792 798 799 797 794 797 798 791 789 789 785 782 778 777 778 776 772 769 765 763 759 753 752 753 752 752 751 751 752 752 753 756 759 762 765 769 772 775 779 782 785 788 792 795 797 800 803 806 809 811 814 816 819 821 823 826 828 831 833 835 837 839 840 842 843 845 846 847 849 850 852 854 855 857 858 859 861 862 863 864 865 867 867 868 869 870 870 871 871 872 873 873
781 781 785 786 784 786 792 799 798 792 796 800 798 802 801 788 780 777 778 780 778 776 775 772 771 767 763 760 756 752 750 749 748 747 748 750 752 756 758 761 765 768 772 775 778 782 785 788 792 795 798 801 803 806 808 811 814 817 819 821 824 826 828 831 833 835 837 839 841 842 844 845 846 848 849 851 853 854 856 857 858 859 861 862 863 864 866 867 867 868 869 869 870 871 871 872 872
783 786 787 784 784 786 790 797 803 800 802 808 812 819 819 811 801 791 786 786 785 783 782 778 775 772 771 769 763 756 749 746 745 744 745 747 748 751 753 756 760 763 767 771 774 779 782 785 789 792 795 798 801 803 806 809 811 814 816 818 821 823 825 828 830 833 835 837 839 841 842 844 845 846 848 850 851 853 854 856 857 858 859 860 862 863 864 865 866 867 868 868 869 870 870 871 871
780 784 784 784 790 793 792 798 806 806 809 817 822 823 824 825 819 806 800 800 795 791 787 783 781 778 777 774 769 762 752 746 745 744 745 745 745 747 749 752 756 759 763 767 771 776 779 783 786 788 791 794 797 801 804 806 809 811 814 815 818 820 822 825 828 830 833 835 836 838 840 842 843 845 846 848 849 851 852 854 855 856 858 859 860 861 863 864 865 866 867 867 868 869 869 869 870
781 783 786 788 792 795 797 801 804 803 807 817 824 828 830 825 816 810 810 807 801 798 794 789 788 785 781 778 773 767 759 750 745 743 743 742 742 744 745 748 752 755 760 764 768 773 776 779 783 786 789 792 796 798 801 803 806 808 811 813 815 818 820 823 825 827 830 832 834 836 838 839 841 843 844 846 847 849 850 852 853 855 856 857 858 859 861 862 863 864 865 866 867 867 868 868 869
798 799 803 803 800 797 798 806 809 806 809 815 824 838 840 821 808 809 811 807 803 801 798 794 791 787 783 779 775 770 764 756 747 742 740 741 742 743 745 747 751 754 758 762 765 769 772 776 779 782 786 790 793 796 798 801 803 805 808 810 813 815 817 820 822 824 826 828 831 833 835 837 839 841 842 843 845 846 848 850 851 853 854 855 856 858 859 860 861 863 864 865 865 866 866 867 868
809 811 814 814 809 804 805 811 815 812 814 818 824 840 840 818 806 808 807 806 803 800 799 796 791 787 784 780 776 773 768 761 754 744 738 738 741 744 746 749 753 755 756 759 762 765 769 772 775 779 783 786 789 792 795 798 800 803 805 807 810 812 815 817 820 822 823 825 828 830 832 835 837 838 840 841 842 844 846 847 849 851 852 853 855 856 857 858 859 860 862 863 864 864 865 866 866